KF0AIT Weather Reports


Display with metric or nautical units.
time (UTC)temp
F
wind
direction
speed
MPH
gust
MPH
rain 1hr
in
rain 24hr
in
rain mn
in
humidity
%
barometer
mb
20260906030903 77 0 0.0 0.0 0.00 0.00 0.00 67 1011.3
20260906030024 77 0 0.0 0.0 0.00 0.00 0.00 66 1011.3
20260906025424 77 0 0.0 0.0 0.00 0.00 0.00 65 1011.3
20260906024503 77 0 0.0 0.0 0.00 0.00 0.00 64 1011.3
20260906023603 77 0 0.0 0.0 0.00 0.00 0.00 63 1011.3
20260906022703 78 135 0.0 2.0 0.00 0.00 0.00 62 1011.3
20260906021803 78 0 0.0 0.0 0.00 0.00 0.00 62 1011.3
20260906020903 78 0 0.0 0.0 0.00 0.00 0.00 61 1010.2
20260906020024 79 0 0.0 0.0 0.00 0.00 0.00 60 1010.2
20260906015403 79 0 0.0 0.0 0.00 0.00 0.00 60 1010.2
20260906014503 79 0 0.0 0.0 0.00 0.00 0.00 59 1010.2
20260906013603 80 0 0.0 0.0 0.00 0.00 0.00 58 1010.2
20260906012724 80 0 0.0 0.0 0.00 0.00 0.00 57 1010.2
20260906011824 80 0 0.0 0.0 0.00 0.00 0.00 56 1010.2
20260906010924 81 0 0.0 0.0 0.00 0.00 0.00 55 1010.2
20260906010003 81 0 0.0 0.0 0.00 0.00 0.00 54 1010.2
20260906005403 82 135 0.0 1.0 0.00 0.00 0.00 53 1010.2
20260906004503 82 135 0.0 1.0 0.00 0.00 0.00 52 1010.2
20260906003603 82 0 0.0 0.0 0.00 0.00 0.00 51 1010.2
20260906002703 83 135 0.0 2.0 0.00 0.00 0.00 50 1009.2
20260906001803 83 135 0.0 2.0 0.00 0.00 0.00 49 1009.2
20260906000924 84 135 0.0 1.0 0.00 0.00 0.00 49 1009.2
20260906000003 84 102 0.0 2.0 0.00 0.00 0.00 49 1009.2
20260905235403 85 100 0.0 2.0 0.00 0.00 0.00 48 1009.2
20260905234503 85 135 0.0 1.0 0.00 0.00 0.00 47 1009.2
20260905233603 85 0 0.0 0.0 0.00 0.00 0.00 47 1009.2
20260905232703 85 157 0.0 1.0 0.00 0.00 0.00 47 1009.2
20260905231803 86 166 0.0 2.0 0.00 0.00 0.00 47 1009.2
20260905230903 86 0 0.0 0.0 0.00 0.00 0.00 47 1009.2
20260905230003 86 180 0.0 3.0 0.00 0.00 0.00 47 1009.2
20260905225403 86 180 0.0 3.0 0.00 0.00 0.00 47 1009.2
20260905224524 86 166 0.0 1.0 0.00 0.00 0.00 47 1009.2
20260905223603 86 166 1.0 1.0 0.00 0.00 0.00 47 1009.2
20260905222724 86 144 0.0 2.0 0.00 0.00 0.00 48 1009.2
20260905221803 86 157 0.0 2.0 0.00 0.00 0.00 48 1009.2
20260905220924 86 133 0.0 2.0 0.00 0.00 0.00 48 1009.2
20260905220024 86 157 0.0 1.0 0.00 0.00 0.00 47 1009.2
20260905215403 86 157 1.0 1.0 0.00 0.00 0.00 47 1009.2
20260905214503 86 157 0.0 1.0 0.00 0.00 0.00 47 1009.2
20260905213603 86 147 0.0 3.0 0.00 0.00 0.00 48 1009.2
20260905212703 86 167 3.0 3.0 0.00 0.00 0.00 47 1009.2
20260905211803 86 174 1.0 1.0 0.00 0.00 0.00 48 1009.2
20260905210903 86 135 0.0 3.0 0.00 0.00 0.00 48 1009.2
20260905210003 85 130 3.0 3.0 0.00 0.00 0.00 48 1009.2
20260905205403 85 121 1.0 1.0 0.00 0.00 0.00 48 1009.2
20260905204524 85 180 0.0 1.0 0.00 0.00 0.00 48 1009.2
20260905203603 85 157 0.0 1.0 0.00 0.00 0.00 48 1009.2
20260905202703 85 176 1.0 2.0 0.00 0.00 0.00 50 1009.2
20260905201803 85 337 0.0 2.0 0.00 0.00 0.00 52 1009.2
20260905200903 84 337 0.0 1.0 0.00 0.00 0.00 53 1009.2
20260905200024 84 0 0.0 0.0 0.00 0.00 0.00 54 1009.2
20260905195424 84 0 0.0 0.0 0.00 0.00 0.00 53 1009.2
20260905194524 83 157 0.0 1.0 0.00 0.00 0.00 53 1009.2
20260905193603 83 163 0.0 1.0 0.00 0.00 0.00 53 1009.2
20260905192724 83 168 1.0 2.0 0.00 0.00 0.00 55 1009.2
20260905191803 82 188 2.0 2.0 0.00 0.00 0.00 56 1009.2
20260905190903 82 0 0.0 0.0 0.00 0.00 0.00 57 1009.2
20260905190003 82 0 0.0 0.0 0.00 0.00 0.00 57 1009.2
20260905185403 82 157 0.0 1.0 0.00 0.00 0.00 57 1009.2
20260905184503 79 157 0.0 3.0 0.00 0.00 0.00 63 1010.2
20260905183603 79 0 0.0 0.0 0.00 0.00 0.00 63 1010.2
20260905182703 79 202 0.0 2.0 0.00 0.00 0.00 63 1010.2
20260905181803 79 157 0.0 1.0 0.00 0.00 0.00 63 1010.2
20260905180903 79 105 1.0 3.0 0.00 0.00 0.00 63 1010.2
20260905180003 79 67 0.0 2.0 0.00 0.00 0.00 63 1010.2
20260905175424 79 90 0.0 2.0 0.00 0.00 0.00 63 1010.2
20260905174524 79 90 0.0 1.0 0.00 0.00 0.00 63 1010.2
20260905173603 79 0 0.0 0.0 0.00 0.00 0.00 63 1010.2
20260905172703 78 0 0.0 0.0 0.00 0.00 0.00 64 1010.2
20260905171803 78 112 0.0 1.0 0.00 0.00 0.00 64 1010.2
20260905170903 77 0 0.0 0.0 0.00 0.00 0.00 65 1010.2
20260905170003 77 157 0.0 2.0 0.00 0.00 0.00 66 1010.2
20260905165403 76 157 0.0 2.0 0.00 0.00 0.00 66 1010.2
20260905164503 76 0 0.0 0.0 0.00 0.00 0.00 67 1010.2
20260905163603 76 0 0.0 0.0 0.00 0.00 0.00 67 1010.2
20260905162703 74 157 0.0 1.0 0.00 0.00 0.00 70 1010.2
20260905161824 74 157 0.0 1.0 0.00 0.00 0.00 70 1010.2
20260905160924 73 157 0.0 1.0 0.00 0.00 0.00 71 1010.2
20260905160003 73 157 0.0 1.0 0.00 0.00 0.00 71 1010.2
20260905155403 73 157 0.0 1.0 0.00 0.00 0.00 71 1010.2
20260905154503 73 157 1.0 1.0 0.00 0.00 0.00 71 1010.2
20260905153603 73 0 0.0 0.0 0.00 0.00 0.00 71 1010.2
20260905152703 72 0 0.0 0.0 0.00 0.00 0.00 71 1010.2
20260905151803 72 157 0.0 2.0 0.00 0.00 0.00 71 1010.2
20260905150903 71 0 0.0 0.0 0.00 0.00 0.00 71 1010.2
20260905150003 71 0 0.0 0.0 0.00 0.00 0.00 71 1010.2
20260905145403 71 0 0.0 0.0 0.00 0.00 0.00 71 1010.2
20260905144503 71 157 0.0 1.0 0.00 0.00 0.00 71 1010.2
20260905143603 71 0 0.0 0.0 0.00 0.00 0.00 72 1010.2
20260905142703 71 0 0.0 0.0 0.00 0.00 0.00 73 1010.2
20260905141803 71 135 0.0 1.0 0.00 0.00 0.00 72 1010.2
20260905140903 70 0 0.0 0.0 0.00 0.00 0.00 73 1010.2
20260905140003 70 135 0.0 1.0 0.00 0.00 0.00 73 1011.3
20260905135403 70 135 1.0 1.0 0.00 0.00 0.00 74 1011.3
20260905134503 70 135 0.0 2.0 0.00 0.00 0.00 75 1011.3
20260905133603 70 135 1.0 4.0 0.00 0.00 0.00 75 1011.3
20260905132724 70 135 0.0 1.0 0.00 0.00 0.00 76 1012.3
20260905131803 70 0 0.0 0.0 0.00 0.00 0.00 76 1012.3
20260905130903 70 161 0.0 1.0 0.00 0.00 0.00 77 1012.3
20260905130003 69 149 0.0 2.0 0.00 0.00 0.00 78 1012.3
20260905125403 69 157 0.0 1.0 0.00 0.00 0.00 79 1012.3
20260905124524 70 0 0.0 0.0 0.00 0.00 0.00 79 1012.3
20260905123603 70 157 0.0 1.0 0.00 0.00 0.00 80 1012.3
20260905122724 70 0 0.0 0.0 0.00 0.00 0.00 81 1012.3
20260905121803 70 0 0.0 0.0 0.00 0.00 0.00 80 1012.3
20260905120924 70 0 0.0 0.0 0.00 0.00 0.00 81 1013.4
20260905120024 70 202 0.0 1.0 0.00 0.00 0.00 81 1013.4
20260905115403 83 217 0.0 2.0 0.00 0.00 0.00 52 1013.4
20260905114503 83 0 0.0 0.0 0.00 0.00 0.00 52 1013.4
20260905113603 83 0 0.0 0.0 0.00 0.00 0.00 52 1013.4
20260905112703 83 0 0.0 0.0 0.00 0.00 0.00 52 1013.4
20260905111803 83 292 0.0 1.0 0.00 0.00 0.00 52 1013.4
20260905110903 83 225 0.0 1.0 0.00 0.00 0.00 52 1012.3
20260905110003 83 225 0.0 1.0 0.00 0.00 0.00 52 1012.3
20260905105403 83 225 0.0 1.0 0.00 0.00 0.00 52 1012.3
20260905104503 83 217 0.0 3.0 0.00 0.00 0.00 52 1012.3
20260905103603 83 169 0.0 3.0 0.00 0.00 0.00 52 1012.3
20260905102703 83 174 2.0 3.0 0.00 0.00 0.00 52 1011.3
20260905101824 83 0 0.0 0.0 0.00 0.00 0.00 52 1011.3
20260905100903 83 0 0.0 0.0 0.00 0.00 0.00 52 1009.2
20260905100003 83 0 0.0 0.0 0.00 0.00 0.00 52 1009.2
20260905095403 83 0 0.0 0.0 0.00 0.00 0.00 52 1009.2
20260905094503 83 0 0.0 0.0 0.00 0.00 0.00 52 1010.2
20260905093603 83 0 0.0 0.0 0.00 0.00 0.00 52 1010.2
20260905092703 83 0 0.0 0.0 0.00 0.00 0.00 52 1010.2
20260905091803 83 0 0.0 0.0 0.00 0.00 0.00 52 1010.2
20260905090903 83 0 0.0 0.0 0.00 0.00 0.00 52 1011.3
20260905090003 83 0 0.0 0.0 0.00 0.00 0.00 52 1011.3
20260905085403 83 0 0.0 0.0 0.00 0.00 0.00 52 1011.3
20260905084503 83 0 0.0 0.0 0.00 0.00 0.00 52 1010.2
20260905083624 83 0 0.0 0.0 0.00 0.00 0.00 52 1010.2
20260905082703 83 0 0.0 0.0 0.00 0.00 0.00 52 1010.2
20260905081803 83 0 0.0 0.0 0.00 0.00 0.00 52 1010.2
20260905080903 83 112 0.0 1.0 0.00 0.00 0.00 52 1010.2
20260905080003 83 112 0.0 2.0 0.00 0.00 0.00 52 1010.2
20260905075403 83 112 0.0 2.0 0.00 0.00 0.00 52 1010.2
20260905074503 83 0 0.0 0.0 0.00 0.00 0.00 52 1010.2
20260905073603 83 0 0.0 0.0 0.00 0.00 0.00 52 1010.2
20260905072703 83 0 0.0 0.0 0.00 0.00 0.00 52 1010.2
20260905071803 83 90 0.0 2.0 0.00 0.00 0.00 52 1010.2
20260905070924 83 0 0.0 0.0 0.00 0.00 0.00 52 1010.2
20260905070003 83 0 0.0 0.0 0.00 0.00 0.00 52 1010.2
20260905065403 83 0 0.0 0.0 0.00 0.00 0.00 52 1010.2
20260905064503 83 0 0.0 0.0 0.00 0.00 0.00 52 1010.2
20260905063624 83 0 0.0 0.0 0.00 0.00 0.00 52 1010.2
20260905062703 83 0 0.0 0.0 0.00 0.00 0.00 52 1010.2
20260905061803 83 0 0.0 0.0 0.00 0.00 0.00 52 1010.2
20260905060903 83 0 0.0 0.0 0.00 0.00 0.00 52 1010.2
20260905060003 83 0 0.0 0.0 0.00 0.00 0.00 52 1010.2
20260905055403 83 0 0.0 0.0 0.00 0.00 0.00 52 1010.2
20260905054503 83 0 0.0 0.0 0.00 0.00 0.00 52 1010.2
20260905053603 83 0 0.0 0.0 0.00 0.00 0.00 52 1010.2
20260905052703 83 0 0.0 0.0 0.00 0.00 0.00 52 1010.2
20260905051803 83 0 0.0 0.0 0.00 0.00 0.00 52 1010.2
20260905050924 83 0 0.0 0.0 0.00 0.00 0.00 52 1010.2
20260905050003 83 0 0.0 0.0 0.00 0.00 0.00 52 1009.2
20260905045403 83 0 0.0 0.0 0.00 0.00 0.00 52 1009.2
20260905044503 83 0 0.0 0.0 0.00 0.00 0.00 52 1009.2
20260905043603 83 0 0.0 0.0 0.00 0.00 0.00 52 1009.2
20260905042703 83 0 0.0 0.0 0.00 0.00 0.00 52 1009.2
20260905041824 83 0 0.0 0.0 0.00 0.00 0.00 52 1009.2
20260905040903 83 0 0.0 0.0 0.00 0.00 0.00 52 1009.2
20260905040003 83 0 0.0 0.0 0.00 0.00 0.00 52 1009.2
20260905035403 83 0 0.0 0.0 0.00 0.00 0.00 52 1009.2
20260905034524 83 0 0.0 0.0 0.00 0.00 0.00 52 1009.2
20260905033603 83 0 0.0 0.0 0.00 0.00 0.00 52 1009.2
20260905032703 83 0 0.0 0.0 0.00 0.00 0.00 52 1009.2
20260905031824 83 0 0.0 0.0 0.00 0.00 0.00 52 1009.2